This is the latest recevied weather packets stored in our database for station/object KE2A-13. If no packets are shown the sender has not sent any weather packets the latest 10 day(s).
| Time | Temp. | Humidity | Pressure | Rain* | Wind** | Luminosity | Snow |
|---|---|---|---|---|---|---|---|
| 1777847400 | 14.44° C | 34% | 1009.6 hPa | - | - | - | - |
| 1777846500 | 14.44° C | 32% | 1009.6 hPa | - | - | - | - |
| 1777845600 | 14.44° C | 34% | 1009.6 hPa | - | - | - | - |
| 1777844700 | 14.44° C | 31% | 1009.5 hPa | - | - | - | - |
| 1777843800 | 14.44° C | 29% | 1009.6 hPa | - | - | - | - |
| 1777842900 | 14.44° C | 34% | 1009.6 hPa | - | - | - | - |
| 1777842000 | 15° C | 32% | 1009.6 hPa | - | - | - | - |
| 1777841100 | 15° C | 32% | 1009.5 hPa | - | - | - | - |
| 1777840200 | 15° C | 34% | 1009.7 hPa | - | - | - | - |
| 1777839300 | 15° C | 32% | 1009.6 hPa | - | - | - | - |
| 1777838400 | 14.44° C | 34% | 1009.7 hPa | - | - | - | - |
| 1777837500 | 15° C | 34% | 1010 hPa | - | - | - | - |
| 1777836600 | 15.56° C | 37% | 1010 hPa | - | - | - | - |
| 1777835700 | 15.56° C | 35% | 1010.2 hPa | - | - | - | - |
| 1777834800 | 15° C | 35% | 1010.2 hPa | - | - | - | - |
| 1777833900 | 13.89° C | 36% | 1010.4 hPa | - | - | - | - |
| 1777833000 | 13.89° C | 36% | 1010.5 hPa | - | - | - | - |
| 1777832100 | 14.44° C | 39% | 1010.5 hPa | - | - | - | - |
| 1777831200 | 13.33° C | 38% | 1010.6 hPa | - | - | - | - |
| 1777830300 | 12.78° C | 43% | 1010.8 hPa | - | - | - | - |
| 1777829400 | 13.33° C | 39% | 1010.9 hPa | - | - | - | - |
| 1777828500 | 12.78° C | 43% | 1011 hPa | - | - | - | - |
| 1777827600 | 12.22° C | 43% | 1011.2 hPa | - | - | - | - |
| 1777826700 | 12.78° C | 40% | 1011.2 hPa | - | - | - | - |
| 1777825800 | 13.33° C | 36% | 1011.1 hPa | - | - | - | - |
* Rain since midnight (hover to see other rain measurements)
** Current wind speed in m/s (hover to see current wind gust speed)